Location: Newark
(13.3167°N, 169.1500°W)
Time: 08:28:42
(UTC+00:00)

Envisat - Visible Passes

Search period start: 16 September 2019 00:00
Search period end: 26 September 2019 00:00
Orbit: 764 x 766 km, 98.1° (Epoch: 16 September)

Date Brightness Start Highest point End Pass type
(mag) Time Alt. Az. Time Alt. Az. Time Alt. Az.
16 Sep 5.7 06:43:53 10° SW 06:47:25 19° W 06:50:57 10° NW visible
17 Sep 3.9 06:05:44 10° S 06:10:40 53° WSW 06:15:36 10° NNW visible
18 Sep 3.1 05:29:03 10° SSE 05:34:00 55° ENE 05:38:55 10° N visible
19 Sep 5.2 06:32:00 10° SSW 06:36:09 26° W 06:40:18 10° NW visible
20 Sep 3.3 05:54:23 10° S 05:59:26 72° WSW 06:04:29 10° NNW visible
21 Sep 6.1 06:59:42 10° WSW 07:01:41 12° W 07:03:39 10° WNW visible
22 Sep 4.7 06:20:20 10° SSW 06:24:54 34° W 06:29:29 10° NW visible
23 Sep 3.0 05:43:07 10° SSE 05:48:12 84° ENE 05:53:16 10° N visible
24 Sep 5.8 06:47:12 10° SW 06:50:25 17° W 06:53:37 10° WNW visible
25 Sep 4.1 06:08:48 10° S 06:13:39 47° W 06:18:30 10° NNW visible
